Regional Weather Roundup
Issued by NWS

Home | Current Version | Previous Version | Graphics & Text | Print | Product List | Glossary On
Versions: 1 2 3 4 5 6 7 8 9 10 11 12 13 14 15 16 17 18 19 20 21 22 23 24 25 26 27 28 29 30 31 32 33 34 35 36 37 38 39 40 41 42 43 44 45 46 47 48 49 50
000
ASUS45 KCYS 300010
RWRWY

WYOMING REGIONAL WEATHER ROUNDUP
NATIONAL WEATHER SERVICE CHEYENNE WY
600 PM MDT MON SEP 29 2014

NOTE:  "FAIR" INDICATES FEW OR NO CLOUDS BELOW 12,000 FEET
WITH NO SIGNIFICANT WEATHER AND/OR OBSTRUCTIONS TO VISIBILITY.

WYZ001-300100-
YELLOWSTONE NATIONAL PARK

CITY           SKY/WX    TMP DP  RH WIND       PRES   REMARKS
LK YELLOWSTONE   N/A     43  35  73 CALM      30.03R
6HR MIN TEMP:  43; 6HR MAX TEMP:  50;

W YELLOWSTONE  NOT AVBL

$$
WYZ002>013-054>058-071-098>099-300100-
NORTHERN WYOMING

CITY           SKY/WX    TMP DP  RH WIND       PRES   REMARKS
JACKSON        PTSUNNY   48  41  76 S7        29.99S
CODY           CLOUDY    54  50  87 S6        29.89S
GREYBULL       PTCLDY    65  46  50 CALM      29.82S
6HR MIN TEMP:  55; 6HR MAX TEMP:  67;

WORLAND        PTCLDY    65  47  52 N3        29.81S
6HR MIN TEMP:  57; 6HR MAX TEMP:  67;

SHERIDAN       MOCLDY    62  49  62 CALM      29.83S
6HR MIN TEMP:  55; 6HR MAX TEMP:  65;

BUFFALO        CLOUDY    61  47  59 S12       29.86S
6HR MIN TEMP:  50; 6HR MAX TEMP:  65;

GILLETTE       MOCLDY    60  47  61 S17       29.87R
6HR MIN TEMP:  58; 6HR MAX TEMP:  66;

HULETT         FAIR      57  52  82 E10       29.89
NEWCASTLE      MOCLDY    55  50  82 SE8       29.91

$$
WYZ014>020-022>026-101>103-300100-
CENTRAL WYOMING

CITY           SKY/WX    TMP DP  RH WIND       PRES   REMARKS
BIG PINEY      CLOUDY    53  35  50 NW14      29.99S
6HR MIN TEMP:  48; 6HR MAX TEMP:  56; 6HR PCP:  0.01;

PINEDALE       CLOUDY    46  36  66 NW10      30.01R
DUBOIS         FAIR      46  36  66 NW13G24   29.95S
LANDER         MOCLDY    62  33  33 W10       29.86R
6HR MIN TEMP:  54; 6HR MAX TEMP:  65;

RIVERTON       MOCLDY    61  39  44 NW6       29.88R
6HR MIN TEMP:  56; 6HR MAX TEMP:  63;

CASPER         CLOUDY    58  44  60 S6        29.90F
6HR MIN TEMP:  53; 6HR MAX TEMP:  65;

DOUGLAS        CLOUDY    60  49  66 SE10      29.90F
6HR MIN TEMP:  60; 6HR MAX TEMP:  68;


$$
WYZ021-027>030-104>119-300100-
SOUTHERN WYOMING

CITY           SKY/WX    TMP DP  RH WIND       PRES   REMARKS
EVANSTON       CLOUDY    51  36  56 W14       30.02S
6HR MIN TEMP:  46; 6HR MAX TEMP:  54; 6HR PCP:  0.03;

KEMMERER       CLOUDY    48  39  71 SW14      30.02S
FORT BRIDGER   FAIR      51  41  69 NW12      30.04S
ROCK SPRINGS   PTSUNNY   49  38  65 W15       29.99R
6HR MIN TEMP:  47; 6HR MAX TEMP:  55; 6HR PCP: TRACE;

DIXON          MOCLDY    54  40  59 SW8       30.01S
RAWLINS        CLOUDY    52  36  54 W13       29.97F
6HR MIN TEMP:  52; 6HR MAX TEMP:  58;

SARATOGA         N/A     50  41  71 W6        29.99S
LARAMIE        RAIN      42  40  92 N7        30.02S FOG
6HR MIN TEMP:  42; 6HR MAX TEMP:  59; 6HR PCP:  0.56;

CHEYENNE       HVY RAIN  51  49  92 N13       29.93F FOG
6HR MIN TEMP:  51; 6HR MAX TEMP:  66; 6HR PCP:  0.26;

TORRINGTON     CLOUDY    59  54  83 N12       29.84F
6HR MIN TEMP:  57; 6HR MAX TEMP:  64;

PINE BLUFFS    RAIN      55  54  94 NW14      29.86R

$$


USA.gov is the U.S. government's official web portal to all federal, state and local government web resources and services.